COSMOS 2491 DEB, 44987

Orbit data source: Space-Track

COSMOS 2491 DEB, 44987 is space debris in LEO originally from a launch on Wed, 25 Dec 2013 UTC launched from the Plesetsk Missile And Space Complex (PKMTR). Debris objects in space refer to the collection of defunct objects orbiting the Earth. Examples of debris include non-operational satellites, rocket bodies, and fragments generated from explosions, collisions, or faulty payload assembly.

Loading next visibility...
Identifier
44987, 2013-076H
Orbit
LEO
Country
Flag of CISCIS
Related business
Manufacturer
TsNIIKhM
Mission
Spacecraft
Bus & Motor
Unknown
Mass
Unknown
Launch date (UTC)
2013-12-25 (12 years ago)
Launch vehicle
Unknown
Launch site
Plesetsk Missile And Space Complex (PKMTR)
Object type
Payload
Rocket body
Debris
Shape & HBR
Unknown shape, 0.1 m
Radar Cross Section
Small (<0.1 m²)

Expand to show TLE details & history
Last TLE update: 6 days ago

TLE from 6 days ago
0 COSMOS 2491 DEB
1 44987U 13076H   25306.56737804 -.00001608  00000-0 -74048-2 0  9997
2 44987  82.4016 244.2349 0203899 299.2354  58.8488 12.70960887269497
Epoch: 2025-11-02T13:37Z
TLE epoch observation values (Epoch: 2025-11-02T13:37:01.462Z)
Latitude
-0.00007°
Longitude
-2.10245°
Altitude
1,301.344 km
Speed
7.243 km/s
True Right ascension
16h 16m 56s
True Declination
0° 00' 00"
Sunlit
Object was in daylight at epoch
Visualization orbit readout
Latitude
Unknown
Longitude
Unknown
Altitude
Unknown
Speed
Unknown
Apparent Right ascension
Unknown
Apparent Declination
Unknown
Sunlit
N/A
Visualization observer readout
Local Sidereal Time
05:43:36
Azimuth
Unknown
Elevation
Unknown
Doppler factor
Unknown
Orbital elements
Apogee altitude
1,533.434 km
Perigee altitude
1,217.249 km
Semi-major axis
7,753.479 km
Eccentricity
0.02039
Inclination
82.4016°
RAAN
244.2349°
Arg. of periapsis
299.2354°
True anomaly
60.87468°
Mean anomaly
58.8488°
Eccentric anomaly
59.8591°
Mean motion
3.17906 °/min
Orbital period
113.24 mins
BSTAR
-0.0074048
Loading maneuver chart data...
Computing Atmospheric mass density...
Loading historical data...
Loading historical data...
Loading historical data...
Loading historical data...
Loading historical data...
Loading historical data...
Loading historical data...

Documentation

Showing up to 5 results
|